sat.trackr.live / text

‹ back to catalog

STARLINK-6373

NORAD 57345 · 2023-099T

PAYLOAD ACTIVE UNKNOWN

§ Identity

Operator
Country
US
Launch date
2023-07-16
Launch site
AFETR
Launch vehicle
Mass (kg)
RCS (m²)

Purposes: comms

External: N2YO · Heavens-Above · Gunter

§ Orbital elements

Epoch: 2026-09-20T15:31:52.501152Z

Period
94.27 min
Inclination
43.0035°
Eccentricity
0.0001484
Mean motion
15.27571165 rev/d
Perigee alt
482.1 km
Apogee alt
484.1 km
Semi-major
6,861.2 km
B*
-4.1822e-5
RAAN
234.7088°
Arg perigee
284.2969°
Mean anomaly
75.7718°
Rev number
17,585

§ Raw data

STARLINK-63731 57345U 23099T   26263.64713543 -.00001413  00000+0 -41822-4 0  99902 57345  43.0035 234.7088 0001484 284.2969  75.7718 15.27571165175851

JSON: /api/v1/satellites/57345 · /tle

For live sub-satellite position, see the globe view (requires WebGL).

§ Visibility from observer

Set your observer location to see the next 7 days of passes ≥ 10°. The values pass through the URL so the page stays shareable.

No JS? Fill the form by hand. The geolocation button needs JavaScript.